Weather History for Driggs, ID

Change the Weather History Date:

Thursday, May 1, 2014

  Actual Average (KRXE) Record (KRXE)
Temperature  
Mean Temperature 45 °F 48 °F  
Max Temperature 61 °F 61 °F 78 °F (2007)
Min Temperature 29 °F 35 °F 26 °F (2013)
Degree Days  
Heating Degree Days 20 17  
Month to date heating degree days 17  
Since 1 July heating degree days 7582  
Cooling Degree Days 0 0  
Month to date cooling degree days 0  
Year to date cooling degree days 0  
Moisture  
Dew Point 25 °F    
Average Humidity 46    
Maximum Humidity 78    
Minimum Humidity 24    
Precipitation  
Precipitation 0.00 in 0.05 in 0.27 in (1984)
Month to date precipitation 0.05  
Year to date precipitation 4.16  
Sea Level Pressure  
Sea Level Pressure 30.20 in    
Wind  
Wind Speed 4 mph (East)    
Max Wind Speed 10 mph    
Max Gust Speed -    
Visibility 10 miles    
Events      
T = Trace of Precipitation, MM = Missing Value Source: NWS Daily Summary

Daily Weather History Graph

Daily Weather History Graph

Search for Another Location

Airport:

Trip Planner

Search our weather history database for the weather conditions in past years. The results will help you decide how hot, cold, wet, or windy it might be!

Date:

Astronomy

May. 01, 2014 Rise Set
Actual Time 6:16 AM MDT 8:27 PM MDT
Civil Twilight 5:44 AM MDT 8:58 PM MDT
Nautical Twilight 5:06 AM MDT 9:37 PM MDT
Astronomical Twilight 4:23 AM MDT 10:21 PM MDT
Moon 8:05 AM MDT (5/1) 11:05 PM MDT (5/1)
Length of Visible Light 15h 13m
Length of Day
14h 10m
Waxing Crescent, 7% of the Moon is Illuminated
May 1
Waxing Crescent
May 6
First Quarter
May 14
Full
May 21
Last Quarter
May 28
New

Hourly Weather History & Observations

Time (MDT) Temp. Windchill Dew Point Humidity Pressure Visibility Wind Dir Wind Speed Gust Speed Precip Events Conditions
12:56 AM 32.0 °F 25.6 °F 24.1 °F 73% 30.33 in 10.0 mi ESE 6.9 mph - N/A   Clear
1:56 AM 32.0 °F 27.5 °F 22.1 °F 67% 30.30 in 10.0 mi East 4.6 mph - N/A   Clear
2:56 AM 29.1 °F - 23.0 °F 78% 30.30 in 10.0 mi Calm Calm - N/A   Clear
3:56 AM 30.0 °F - 22.1 °F 72% 30.28 in 10.0 mi Calm Calm - N/A   Clear
5:56 AM 32.0 °F 28.7 °F 19.0 °F 59% 30.26 in 10.0 mi East 3.5 mph - N/A   Clear
6:56 AM 30.0 °F 25.2 °F 22.1 °F 72% 30.26 in 10.0 mi East 4.6 mph - N/A   Clear
7:56 AM 34.0 °F - 22.1 °F 62% 30.28 in 10.0 mi Calm Calm - N/A   Clear
8:56 AM 41.0 °F 38.0 °F 27.1 °F 58% 30.30 in 9.0 mi East 4.6 mph - N/A   Clear
9:56 AM 48.9 °F - 17.1 °F 28% 30.25 in 9.0 mi Calm Calm - N/A   Clear
10:56 AM 52.0 °F - 19.0 °F 27% 30.25 in 9.0 mi NNW 5.8 mph - N/A   Clear
11:56 AM 54.9 °F - 23.0 °F 29% 30.24 in 9.0 mi West 5.8 mph - N/A   Clear
12:56 PM 57.9 °F - 22.1 °F 25% 30.21 in 10.0 mi ENE 4.6 mph - N/A   Clear
1:56 PM 59.9 °F - 23.0 °F 24% 30.19 in 7.0 mi Variable 4.6 mph - N/A   Clear
2:56 PM 61.0 °F - 25.2 °F 25% 30.18 in 9.0 mi West 8.1 mph - N/A   Clear
3:56 PM 61.0 °F - 24.1 °F 24% 30.15 in 10.0 mi Variable 3.5 mph - N/A   Clear
4:56 PM 61.9 °F - 26.1 °F 26% 30.14 in 10.0 mi Variable 4.6 mph - N/A   Clear
5:56 PM 61.9 °F - 25.2 °F 25% 30.11 in 10.0 mi Variable 3.5 mph - N/A   Clear
6:56 PM 61.9 °F - 27.1 °F 27% 30.10 in 10.0 mi Variable 5.8 mph - N/A   Clear
7:56 PM 61.9 °F - 30.0 °F 30% 30.07 in 10.0 mi East 3.5 mph - N/A   Clear
8:56 PM 50.0 °F - 32.0 °F 50% 30.09 in 9.0 mi SE 8.1 mph - N/A   Clear
9:56 PM 45.0 °F 40.1 °F 32.0 °F 60% 30.09 in 10.0 mi East 9.2 mph - N/A   Clear
10:56 PM 45.9 °F 43.6 °F 32.0 °F 58% 30.08 in 10.0 mi East 4.6 mph - N/A   Mostly Cloudy
11:56 PM 45.0 °F 39.7 °F 32.9 °F 63% 30.06 in 10.0 mi East 10.4 mph - N/A   Overcast